EA1FBN Weather Reports


time (UTC)temp
C
wind
direction
speed
KPH
gust
KPH
rain 1hr
cm
rain 24hr
cm
rain mn
cm
humidity
%
barometer
mb
20260508060956 7 292 3.2 4.8 0.00 0.38 0.00 70 1011.3
20260508060456 7 309 3.2 6.4 0.00 0.38 0.00 69 1011.4
20260508055956 7 303 1.6 4.8 0.00 0.38 0.00 69 1011.4
20260508055456 7 300 1.6 6.4 0.00 0.38 0.00 68 1011.4
20260508054956 7 302 1.6 4.8 0.00 0.38 0.00 68 1011.4
20260508054456 7 300 1.6 4.8 0.00 0.38 0.00 66 1011.4
20260508053956 7 307 0.0 4.8 0.00 0.38 0.00 66 1011.4
20260508053457 7 292 0.0 1.6 0.00 0.38 0.00 65 1011.3
20260508052957 7 306 0.0 1.6 0.00 0.38 0.00 64 1011.3
20260508052457 7 303 0.0 1.6 0.00 0.38 0.00 63 1011.2
20260508051957 7 297 0.0 1.6 0.00 0.38 0.00 61 1011.2
20260508051457 7 291 1.6 3.2 0.00 0.38 0.00 60 1011.1
20260508050957 7 301 1.6 3.2 0.00 0.38 0.00 59 1011.1
20260508050457 6 300 1.6 6.4 0.00 0.38 0.00 59 1011.0
20260508045957 6 285 0.0 3.2 0.00 0.38 0.00 59 1011.1
20260508045457 6 252 0.0 3.2 0.00 0.38 0.00 59 1011.0
20260508044957 6 261 0.0 3.2 0.00 0.38 0.00 60 1011.1
20260508044457 6 268 0.0 3.2 0.00 0.38 0.00 60 1011.1
20260508043957 6 255 0.0 1.6 0.00 0.38 0.00 60 1011.1
20260508043457 6 262 0.0 4.8 0.00 0.38 0.00 61 1011.0
20260508042957 6 250 0.0 1.6 0.00 0.38 0.00 61 1011.1
20260508042457 6 255 0.0 3.2 0.00 0.38 0.00 62 1011.0
20260508041957 6 256 0.0 1.6 0.00 0.38 0.00 62 1011.0
20260508041457 6 259 0.0 1.6 0.00 0.38 0.00 63 1011.0
20260508040957 6 259 1.6 3.2 0.00 0.38 0.00 63 1011.0
20260508040457 6 294 1.6 3.2 0.00 0.38 0.00 64 1010.9
20260508035957 6 281 1.6 8.0 0.00 0.38 0.00 64 1010.9
20260508035457 6 279 1.6 8.0 0.00 0.38 0.00 65 1010.7
20260508034957 7 252 3.2 8.0 0.00 0.38 0.00 65 1010.7
20260508034457 7 295 1.6 8.0 0.00 0.38 0.00 65 1010.8
20260508033957 7 263 3.2 8.0 0.00 0.38 0.00 66 1010.9
20260508033457 7 253 3.2 9.7 0.00 0.38 0.00 66 1010.9
20260508032957 7 262 3.2 9.7 0.00 0.38 0.00 67 1010.9
20260508032457 7 264 1.6 8.0 0.00 0.38 0.00 67 1011.0
20260508031957 7 264 1.6 4.8 0.00 0.38 0.00 68 1011.0
20260508031457 7 241 1.6 6.4 0.00 0.38 0.00 68 1011.1
20260508030957 7 259 1.6 3.2 0.00 0.38 0.00 68 1011.0
20260508030457 7 253 1.6 4.8 0.00 0.38 0.00 69 1010.9
20260508025957 7 271 0.0 3.2 0.00 0.38 0.00 70 1011.0
20260508025457 7 261 0.0 3.2 0.00 0.38 0.00 70 1011.0
20260508024957 7 272 1.6 3.2 0.00 0.38 0.00 71 1010.9
20260508024457 7 267 0.0 3.2 0.00 0.38 0.00 71 1010.9
20260508023957 7 257 0.0 3.2 0.00 0.38 0.00 72 1010.9
20260508023457 7 255 0.0 1.6 0.00 0.38 0.00 72 1010.9
20260508022958 7 280 0.0 1.6 0.00 0.38 0.00 72 1011.0
20260508022457 8 277 0.0 3.2 0.00 0.38 0.00 72 1011.1
20260508021957 8 276 0.0 3.2 0.00 0.38 0.00 72 1011.2
20260508021457 8 271 0.0 3.2 0.00 0.38 0.00 73 1011.2
20260508020957 8 278 1.6 3.2 0.00 0.38 0.00 73 1011.2
20260508020457 8 288 1.6 3.2 0.00 0.38 0.00 73 1011.3
20260508015957 8 278 1.6 3.2 0.00 0.38 0.00 73 1011.3
20260508015457 8 290 0.0 3.2 0.00 0.38 0.00 73 1011.3
20260508014957 8 268 0.0 1.6 0.00 0.38 0.00 73 1011.4
20260508014457 8 292 0.0 3.2 0.00 0.38 0.00 73 1011.4
20260508013957 8 262 0.0 1.6 0.00 0.38 0.00 73 1011.5
20260508013457 8 259 0.0 1.6 0.00 0.38 0.00 73 1011.6
20260508012957 8 244 0.0 1.6 0.00 0.38 0.00 73 1011.7
20260508012457 8 230 0.0 1.6 0.00 0.38 0.00 74 1011.8
20260508011957 9 230 0.0 0.0 0.00 0.38 0.00 74 1011.7
20260508011457 9 230 0.0 0.0 0.00 0.38 0.00 74 1011.8
20260508010957 9 179 0.0 0.0 0.00 0.38 0.00 74 1011.8
20260508010457 9 179 0.0 0.0 0.00 0.38 0.00 74 1011.8
20260508005957 9 178 0.0 0.0 0.00 0.38 0.00 74 1011.8
20260508005457 9 179 0.0 0.0 0.00 0.38 0.00 74 1011.9
20260508004958 9 179 0.0 1.6 0.00 0.38 0.00 75 1011.9
20260508004458 10 201 0.0 0.0 0.00 0.38 0.00 75 1011.9
20260508003957 10 310 0.0 0.0 0.00 0.38 0.00 75 1011.9
20260508003458 10 310 1.6 3.2 0.00 0.38 0.00 75 1011.9
20260508002958 10 330 0.0 3.2 0.00 0.38 0.00 75 1011.9
20260508002458 10 295 0.0 1.6 0.00 0.38 0.00 75 1011.9
20260508001958 10 283 0.0 4.8 0.00 0.38 0.00 75 1011.9
20260508001458 10 310 1.6 0.0 0.00 0.38 0.00 75 1012.0
20260508000958 10 310 3.2 4.8 0.00 0.38 0.00 75 1012.0
20260508000458 10 296 3.2 6.4 0.00 0.38 0.00 75 1012.0
20260507235958 10 294 1.6 6.4 0.00 0.38 0.00 75 1012.0
20260507235458 10 314 1.6 4.8 0.00 0.38 0.00 75 1012.0
20260507234958 10 292 3.2 6.4 0.00 0.38 0.00 75 1012.1
20260507234458 10 304 3.2 9.7 0.00 0.38 0.00 75 1012.2
20260507233958 10 299 3.2 6.4 0.00 0.38 0.00 75 1012.2
20260507233458 10 290 3.2 6.4 0.00 0.38 0.00 75 1012.3
20260507232958 10 300 3.2 4.8 0.00 0.38 0.00 75 1012.3
20260507232458 10 323 3.2 6.4 0.00 0.38 0.00 75 1012.3
20260507231958 10 291 3.2 8.0 0.00 0.38 0.00 75 1012.3
20260507231458 10 290 3.2 6.4 0.00 0.38 0.00 75 1012.4
20260507230958 10 317 3.2 8.0 0.00 0.38 0.00 75 1012.4
20260507230458 10 282 3.2 9.7 0.00 0.38 0.00 75 1012.4
20260507225958 10 319 1.6 8.0 0.00 0.38 0.00 75 1012.5
20260507225458 10 317 1.6 4.8 0.00 0.38 0.00 75 1012.5
20260507224958 10 316 3.2 6.4 0.00 0.38 0.00 75 1012.5
20260507224458 10 342 3.2 11.3 0.00 0.38 0.00 75 1012.4
20260507223958 10 338 4.8 9.7 0.00 0.38 0.00 75 1012.4
20260507223458 10 300 6.4 9.7 0.00 0.38 0.00 75 1012.5
20260507222958 10 307 6.4 11.3 0.00 0.38 0.00 75 1012.5
20260507222458 10 312 4.8 11.3 0.00 0.38 0.00 75 1012.5
20260507221958 10 313 4.8 9.7 0.00 0.38 0.00 75 1012.4
20260507221458 10 344 3.2 11.3 0.00 0.38 0.00 75 1012.5
20260507220958 10 308 1.6 8.0 0.00 0.38 0.00 75 1012.5
20260507220458 10 340 1.6 4.8 0.00 0.38 0.00 75 1012.4
20260507215958 10 313 1.6 4.8 0.00 0.38 0.38 75 1012.3
20260507215458 10 278 1.6 4.8 0.00 0.38 0.38 75 1012.2
20260507214958 10 297 3.2 4.8 0.00 0.38 0.38 75 1012.2
20260507214458 10 302 3.2 6.4 0.00 0.38 0.38 75 1012.2
20260507213958 10 304 3.2 6.4 0.00 0.38 0.38 75 1012.1
20260507213458 10 334 4.8 6.4 0.00 0.38 0.38 75 1012.0
20260507212958 10 299 4.8 9.7 0.00 0.38 0.38 75 1012.0
20260507212458 10 300 4.8 8.0 0.00 0.38 0.38 75 1012.0
20260507211958 10 294 3.2 6.4 0.00 0.38 0.38 75 1012.1
20260507211458 10 289 1.6 6.4 0.00 0.38 0.38 75 1012.2
20260507210958 10 291 1.6 4.8 0.00 0.38 0.38 75 1012.2
20260507210458 10 288 1.6 6.4 0.00 0.38 0.38 74 1012.2
20260507205958 10 60 1.6 6.4 0.00 0.38 0.38 75 1012.2
20260507205458 10 300 0.0 1.6 0.00 0.38 0.38 75 1012.1
20260507204958 10 333 1.6 3.2 0.00 0.38 0.38 75 1012.1
20260507204458 10 54 1.6 3.2 0.00 0.38 0.38 75 1012.1
20260507203958 10 55 0.0 6.4 0.00 0.38 0.38 75 1012.1
20260507203458 11 37 0.0 4.8 0.00 0.38 0.38 75 1012.1
20260507202958 11 65 3.2 4.8 0.00 0.38 0.38 75 1012.1
20260507202458 11 60 4.8 11.3 0.00 0.38 0.38 74 1012.0
20260507201958 11 76 3.2 8.0 0.00 0.38 0.38 74 1012.0
20260507201458 11 49 3.2 8.0 0.00 0.38 0.38 73 1011.9
20260507200958 11 100 1.6 6.4 0.00 0.38 0.38 73 1012.0
20260507200458 11 53 1.6 6.4 0.00 0.38 0.38 73 1011.9
20260507195958 11 14 3.2 4.8 0.00 0.38 0.38 74 1011.7
20260507195459 11 40 6.4 9.7 0.00 0.38 0.38 73 1011.6
20260507194958 12 10 6.4 9.7 0.00 0.38 0.38 72 1011.4
20260507194459 12 41 4.8 9.7 0.00 0.38 0.38 72 1011.2
20260507193959 12 338 3.2 6.4 0.00 0.38 0.38 72 1011.1
20260507193458 12 351 3.2 9.7 0.00 0.38 0.38 72 1011.0
20260507192959 12 340 4.8 6.4 0.00 0.38 0.38 71 1011.0
20260507192459 12 300 4.8 9.7 0.00 0.38 0.38 71 1011.0
20260507191959 12 345 6.4 11.3 0.00 0.38 0.38 71 1010.9
20260507191459 12 342 4.8 11.3 0.00 0.38 0.38 71 1010.7
20260507190959 12 297 3.2 11.3 0.00 0.38 0.38 71 1010.7
20260507190459 13 306 4.8 8.0 0.00 0.38 0.38 70 1010.7
20260507185959 13 300 4.8 14.5 0.00 0.38 0.38 70 1010.7
20260507185459 13 321 4.8 8.0 0.00 0.38 0.38 70 1010.6
20260507184959 13 323 4.8 9.7 0.00 0.38 0.38 69 1010.6
20260507184459 13 289 6.4 9.7 0.00 0.38 0.38 69 1010.5
20260507183959 13 296 6.4 9.7 0.00 0.38 0.38 69 1010.5
20260507183459 13 334 8.0 12.9 0.00 0.38 0.38 68 1010.5
20260507182959 14 321 9.7 16.1 0.00 0.38 0.38 68 1010.5
20260507182459 14 302 8.0 14.5 0.00 0.38 0.38 68 1010.5
20260507181959 14 322 6.4 12.9 0.00 0.38 0.38 69 1010.4
20260507181459 13 324 6.4 16.1 0.00 0.38 0.38 70 1010.4
20260507180959 13 294 6.4 16.1 0.00 0.38 0.38 72 1010.5
20260507180459 13 348 6.4 12.9 0.00 0.38 0.38 73 1010.5
20260507175959 13 311 8.0 11.3 0.00 0.38 0.38 74 1010.5
20260507175459 13 341 11.3 19.3 0.00 0.38 0.38 74 1010.5
20260507174959 13 299 11.3 17.7 0.00 0.38 0.38 58 1010.5
20260507174459 13 314 8.0 17.7 0.00 0.38 0.38 52 1010.5
20260507173959 13 348 6.4 14.5 0.00 0.38 0.38 49 1010.5
20260507173459 13 340 6.4 11.3 0.00 0.38 0.38 47 1010.4
20260507172959 13 6 9.7 14.5 0.03 0.38 0.38 47 1010.4
20260507172459 12 328 9.7 17.7 0.03 0.38 0.38 49 1010.4
20260507171959 12 330 6.4 19.3 0.03 0.38 0.38 46 1010.3
20260507171459 13 312 6.4 8.0 0.03 0.38 0.38 43 1010.4
20260507171000 12 340 6.4 14.5 0.03 0.38 0.38 44 1010.4
20260507170459 12 4 8.0 14.5 0.03 0.38 0.38 43 1010.4
20260507165959 12 337 8.0 14.5 0.03 0.38 0.38 42 1010.4
20260507165459 12 345 6.4 12.9 0.03 0.38 0.38 41 1010.4
20260507164959 12 333 6.4 11.3 0.03 0.38 0.38 41 1010.3
20260507164459 12 347 6.4 11.3 0.03 0.38 0.38 41 1010.3
20260507163959 12 326 6.4 11.3 0.03 0.38 0.38 41 1010.4
20260507163459 11 333 6.4 11.3 0.03 0.38 0.38 41 1010.4
20260507162959 11 345 8.0 14.5 0.00 0.36 0.36 42 1010.3
20260507162459 11 345 8.0 14.5 0.00 0.36 0.36 43 1010.4
20260507161959 10 326 4.8 14.5 0.00 0.36 0.36 44 1010.3
20260507161459 10 349 3.2 6.4 0.00 0.36 0.36 45 1010.3
20260507160959 10 312 3.2 6.4 0.00 0.36 0.36 45 1010.2
20260507160459 10 312 4.8 6.4 0.00 0.36 0.36 46 1010.1
20260507155959 10 290 4.8 11.3 0.00 0.36 0.36 47 1010.1
20260507155459 9 242 4.8 8.0 0.00 0.36 0.36 47 1010.2
20260507154959 9 282 4.8 11.3 0.00 0.36 0.36 48 1010.5
20260507154459 10 269 3.2 6.4 0.00 0.36 0.36 48 1010.9
20260507153959 10 0 3.2 8.0 0.00 0.36 0.36 48 1011.4
20260507153459 10 306 3.2 6.4 0.00 0.36 0.36 49 1011.5
20260507152959 10 343 3.2 8.0 0.20 0.36 0.36 50 1011.5
20260507152459 9 296 3.2 6.4 0.28 0.36 0.36 51 1011.4
20260507151959 9 338 4.8 8.0 0.28 0.36 0.36 52 1011.3
20260507151459 9 300 6.4 9.7 0.28 0.36 0.36 54 1011.3
20260507150959 9 314 8.0 12.9 0.36 0.36 0.36 55 1011.2
20260507150459 9 319 8.0 12.9 0.36 0.36 0.36 57 1011.2
20260507145959 9 295 4.8 14.5 0.36 0.36 0.36 60 1011.3
20260507145459 9 283 4.8 9.7 0.36 0.36 0.36 63 1011.3
20260507145000 9 296 4.8 8.0 0.36 0.36 0.36 66 1011.3
20260507144500 9 323 8.0 11.3 0.36 0.36 0.36 72 1011.3
20260507143959 10 341 11.3 22.5 0.36 0.36 0.36 74 1011.4
20260507143500 12 12 14.5 19.3 0.36 0.36 0.36 67 1011.6
20260507143000 13 67 14.5 27.4 0.15 0.15 0.15 62 1011.4
20260507142500 14 8 16.1 30.6 0.08 0.08 0.08 57 1011.1
20260507142000 15 358 16.1 32.2 0.08 0.08 0.08 56 1010.9
20260507141500 16 52 9.7 41.8 0.08 0.08 0.08 52 1010.6
20260507141000 16 300 3.2 8.0 0.00 0.00 0.00 52 1010.3
20260507140500 16 218 3.2 6.4 0.00 0.00 0.00 52 1010.0
20260507140000 16 255 3.2 6.4 0.00 0.00 0.00 53 1010.0
20260507135500 17 258 4.8 8.0 0.00 0.00 0.00 52 1009.9
20260507135000 17 258 6.4 16.1 0.00 0.00 0.00 53 1009.9
20260507134500 17 245 4.8 19.3 0.00 0.00 0.00 50 1009.9
20260507134000 17 240 4.8 8.0 0.00 0.00 0.00 53 1009.9
20260507133500 17 139 6.4 11.3 0.00 0.00 0.00 51 1010.0
20260507133000 17 188 8.0 16.1 0.00 0.00 0.00 52 1009.9
20260507132500 17 226 8.0 16.1 0.00 0.00 0.00 53 1009.9
20260507132000 17 150 6.4 17.7 0.00 0.00 0.00 54 1009.9
20260507131500 17 173 4.8 14.5 0.00 0.00 0.00 55 1010.0
20260507131000 17 160 4.8 9.7 0.00 0.00 0.00 55 1009.9
20260507130500 17 163 4.8 9.7 0.00 0.00 0.00 52 1010.0
20260507130000 17 167 4.8 9.7 0.00 0.00 0.00 55 1010.0
20260507125500 16 133 6.4 9.7 0.00 0.00 0.00 53 1010.0
20260507125000 16 226 9.7 12.9 0.00 0.00 0.00 52 1010.1
20260507124500 16 219 6.4 17.7 0.00 0.00 0.00 54 1010.1
20260507124000 15 204 4.8 9.7 0.00 0.00 0.00 55 1010.2
20260507123500 15 257 4.8 9.7 0.00 0.00 0.00 55 1010.4
20260507123000 15 283 4.8 12.9 0.00 0.00 0.00 52 1010.4
20260507122500 15 288 4.8 11.3 0.00 0.00 0.00 52 1010.5
20260507122000 16 247 1.6 12.9 0.00 0.00 0.00 54 1010.6
20260507121500 16 122 3.2 4.8 0.00 0.00 0.00 57 1010.6
20260507121000 16 88 4.8 4.8 0.00 0.00 0.00 56 1010.6
20260507120500 16 87 4.8 8.0 0.00 0.00 0.00 56 1010.7
20260507120000 16 82 8.0 8.0 0.00 0.00 0.00 57 1010.7
20260507115500 16 119 8.0 12.9 0.00 0.00 0.00 56 1010.8
20260507115000 16 130 6.4 16.1 0.00 0.00 0.00 54 1010.9
20260507114500 17 134 3.2 14.5 0.00 0.00 0.00 54 1010.9
20260507114000 17 179 3.2 9.7 0.00 0.00 0.00 54 1010.9
20260507113500 17 49 3.2 8.0 0.00 0.00 0.00 54 1011.0
20260507113000 17 157 3.2 4.8 0.00 0.00 0.00 54 1011.0
20260507112500 17 32 4.8 11.3 0.00 0.00 0.00 54 1011.1
20260507112000 17 73 6.4 11.3 0.00 0.00 0.00 56 1011.2
20260507111500 16 94 6.4 11.3 0.00 0.00 0.00 53 1011.2
20260507111000 17 107 4.8 9.7 0.00 0.00 0.00 52 1011.3
20260507110500 17 350 4.8 8.0 0.00 0.00 0.00 54 1011.4
20260507110000 17 11 3.2 11.3 0.00 0.00 0.00 54 1011.4
20260507105500 16 345 4.8 6.4 0.00 0.00 0.00 55 1011.5
20260507105000 16 345 4.8 9.7 0.00 0.00 0.00 54 1011.6
20260507104500 16 58 3.2 11.3 0.00 0.00 0.00 54 1011.6
20260507104000 16 330 1.6 4.8 0.00 0.00 0.00 56 1011.7
20260507103500 16 276 3.2 4.8 0.00 0.00 0.00 55 1011.7
20260507103000 16 324 3.2 12.9 0.00 0.00 0.00 55 1011.8
20260507102500 16 358 3.2 12.9 0.00 0.00 0.00 55 1011.8
20260507102000 16 42 4.8 6.4 0.00 0.00 0.00 56 1011.8
20260507101500 15 75 4.8 9.7 0.00 0.00 0.00 56 1011.8
20260507101000 16 46 3.2 9.7 0.00 0.00 0.00 57 1011.9
20260507100500 16 14 1.6 6.4 0.00 0.00 0.00 61 1011.9
20260507100000 15 278 0.0 4.8 0.00 0.00 0.00 63 1011.9
20260507095500 15 333 0.0 3.2 0.00 0.00 0.00 64 1012.0
20260507095000 15 181 1.6 3.2 0.00 0.00 0.00 63 1012.0
20260507094500 14 302 3.2 8.0 0.00 0.00 0.00 64 1012.1
20260507094001 13 359 3.2 6.4 0.00 0.00 0.00 66 1012.1
20260507093501 13 300 4.8 9.7 0.00 0.00 0.00 68 1012.1
20260507093001 13 281 3.2 6.4 0.00 0.00 0.00 70 1012.2
20260507092501 13 264 4.8 8.0 0.00 0.00 0.00 70 1012.1
20260507092001 12 311 4.8 9.7 0.00 0.00 0.00 71 1012.2
20260507091501 12 295 4.8 8.0 0.00 0.00 0.00 71 1012.3
20260507091001 12 297 3.2 8.0 0.00 0.00 0.00 70 1012.3
20260507090501 12 307 3.2 6.4 0.00 0.00 0.00 71 1012.3
20260507090001 12 283 3.2 9.7 0.00 0.00 0.00 72 1012.3
20260507085501 12 252 3.2 9.7 0.00 0.00 0.00 71 1012.4
20260507085001 12 263 3.2 8.0 0.00 0.00 0.00 72 1012.4
20260507084501 11 283 4.8 8.0 0.00 0.00 0.00 72 1012.4
20260507084001 11 254 4.8 11.3 0.00 0.00 0.00 73 1012.4
20260507083501 11 303 3.2 8.0 0.00 0.00 0.00 73 1012.4
20260507083001 11 310 4.8 8.0 0.00 0.00 0.00 74 1012.4
20260507082501 11 352 4.8 9.7 0.00 0.00 0.00 74 1012.4
20260507082001 11 307 4.8 9.7 0.00 0.03 0.00 74 1012.4
20260507081501 10 328 3.2 8.0 0.00 0.03 0.00 75 1012.4
20260507081001 10 297 4.8 9.7 0.00 0.03 0.00 74 1012.3
20260507080501 10 287 4.8 9.7 0.00 0.03 0.00 74 1012.2
20260507080001 10 274 6.4 14.5 0.00 0.03 0.00 75 1012.2
20260507075501 9 238 8.0 16.1 0.00 0.03 0.00 75 1012.2
20260507075001 9 268 8.0 16.1 0.00 0.03 0.00 74 1012.2
20260507074501 9 253 6.4 16.1 0.00 0.03 0.00 75 1012.2
20260507074001 9 255 6.4 16.1 0.00 0.03 0.00 75 1012.4
20260507073501 9 246 8.0 14.5 0.00 0.03 0.00 75 1012.4
20260507073001 9 261 6.4 14.5 0.00 0.03 0.00 75 1012.5
20260507072501 9 259 6.4 19.3 0.00 0.03 0.00 75 1012.5
20260507072001 9 249 8.0 16.1 0.00 0.03 0.00 75 1012.6
20260507071501 9 262 8.0 14.5 0.00 0.03 0.00 75 1012.6
20260507071001 9 246 8.0 14.5 0.00 0.03 0.00 74 1012.7
20260507070501 8 276 8.0 16.1 0.00 0.03 0.00 74 1012.7
20260507070001 8 257 8.0 14.5 0.00 0.03 0.00 73 1012.8
20260507065501 8 250 8.0 17.7 0.00 0.03 0.00 72 1012.8
20260507065001 8 246 6.4 16.1 0.00 0.03 0.00 70 1012.8
20260507064501 8 245 4.8 11.3 0.00 0.03 0.00 68 1012.8
20260507064001 8 244 6.4 8.0 0.00 0.03 0.00 67 1012.8
20260507063501 7 246 6.4 14.5 0.00 0.03 0.00 66 1012.8
20260507063001 7 254 4.8 11.3 0.00 0.03 0.00 65 1012.8
20260507062501 7 236 6.4 9.7 0.00 0.03 0.00 64 1012.9
20260507062001 7 241 6.4 12.9 0.00 0.03 0.00 63 1012.8
20260507061502 7 255 6.4 11.3 0.00 0.03 0.00 61 1012.6